Lexington Weather

Lexington, Massachusetts, USA

30°F
4/1/2020 3:21am 
  • Lexington Conditions: Clear
  • Temperature: 29.5°F / -1.4°CColder 0.3°F than last hour.
  • Dew Point: 27.5°FDecreased 0.4°Fsince last hour.
  • Relative Humidity: 92
  • Wind: Wind from ESE ESE 1 mph, 10-min avg: Calm, gust: 2 mph
  • Barometer: 29.89 in Steady
  • Visibility: 10 miles
  • Snow Today: 0.0 in
  •   

Regional Weather Roundup
for Boston / Norton, MA

        
000
ASUS41 KBOX 301404
RWRBOX

REGIONAL WEATHER ROUNDUP
NATIONAL WEATHER SERVICE BOSTON/NORTON MA
1000 AM EDT MON MAR 30 2020

NOTE:  "FAIR" INDICATES FEW OR NO CLOUDS BELOW 12,000 FEET WITH NO 
SIGNIFICANT WEATHER AND/OR OBSTRUCTIONS TO VISIBILITY.

MAZALL-301500-
EASTERN MASSACHUSETTS
  
CITY           SKY/WX    TMP DP  RH WIND       PRES   REMARKS
BOSTON         CLOUDY    40  38  93 NE17      30.00S FOG     WCI  31  
BEVERLY        CLOUDY    40  37  89 NE10G22   30.00F FOG              
LAWRENCE       CLOUDY    39  38  96 NE12      30.04S FOG     WCI  32  
BEDFORD        CLOUDY    41  37  86 NE9       30.01R FOG              
BLUE HILL        N/A     37  37 100 N14G24    29.96R WCI  28          
NORWOOD        CLOUDY    42  37  82 N10       30.00R                  
MARSHFIELD     CLOUDY    43  41  93 NE8G22    29.98S FOG              
PLYMOUTH       LGT RAIN  41  39  93 N17G23      N/A  FOG              
TAUNTON        CLOUDY    41  39  93 VRB7      29.96S FOG              
NEW BEDFORD    CLOUDY    40  40 100 VRB6G20   29.95R FOG              
$$

MAZALL-301500-
CAPE COD AND THE ISLANDS
  
CITY           SKY/WX    TMP DP  RH WIND       PRES   REMARKS
FALMOUTH       CLOUDY    41  41 100 NE17G29   29.94R                  
HYANNIS        CLOUDY    45  41  86 N12G22    29.91R                  
CHATHAM        CLOUDY    43  40  89 NE9G23    29.91S                  
PROVINCETOWN   CLOUDY    42  40  92 NE14G23   29.97R                  
NANTUCKET      CLOUDY    45  43  93 N18G29    29.87S                  
MARTHAS VNYRD  CLOUDY    44  41  89 N15       29.92R                  
$$
 
MAZALL-301500-
CENTRAL AND WESTERN MASSACHUSETTS
  
CITY           SKY/WX    TMP DP  RH WIND       PRES   REMARKS
WORCESTER      CLOUDY    36  35  96 NE8       29.97F WCI  30          
FITCHBURG      CLOUDY    39  35  86 N3        30.01F FOG              
ORANGE         CLOUDY    40  35  83 E9        29.99F                  
SPRINGFIELD    CLOUDY    40  35  80 E7        29.97F                  
WESTFIELD      CLOUDY    40  34  79 NE6       29.99F                  
NORTH ADAMS    CLOUDY    39  33  79 E12G22    29.96S WCI  32          
PITTSFIELD     CLOUDY    37  33  85 E5        29.94R                  
$$
 
RIZALL-301500-
RHODE ISLAND
  
CITY           SKY/WX    TMP DP  RH WIND       PRES   REMARKS
PROVIDENCE     CLOUDY    43  39  86 N16       29.99R                  
NEWPORT        CLOUDY    43  39  86 N9        29.96R                  
BLOCK ISLAND   CLOUDY    42  39  89 N12       29.98R                  
SMITHFIELD     LGT RAIN  40  39  97 NE14      29.98R                  
WESTERLY       CLOUDY    46  38  73 N7        29.98R                  
$$
 
CTZALL-301500-
CONNECTICUT
  
CITY           SKY/WX    TMP DP  RH WIND       PRES   REMARKS
BRADLEY INTL   CLOUDY    41  35  79 NE12      29.98F                  
HARTFORD       CLOUDY    42  36  79 NE7       29.98F                  
BRIDGEPORT     CLOUDY    43  38  82 E10       29.97F                  
DANBURY        CLOUDY    40  37  89 E8        29.97S                  
GROTON         CLOUDY    42  39  89 N14       29.97S                  
NEW HAVEN      CLOUDY    44  39  82 NE12      29.96F                  
CHESTER        CLOUDY    41  37  87 NE6G14    29.96F                  
MERIDEN        CLOUDY    41  36  82 NE7       29.98F                  
WILLIMANTIC    CLOUDY    42  37  82 NE10      29.98F                  
OXFORD         CLOUDY    39  37  92 E10       29.95F                  
$$

MEZ002-015-021-024-NHZ003-005-008-011-012-014-VTZ005-008-301500-
NORTHERN NEW ENGLAND
  
CITY           SKY/WX    TMP DP  RH WIND       PRES   REMARKS
PORTLAND ME    LGT RAIN  38  35  89 NE10      30.08R VSB 1   WCI  31  
BANGOR ME      LGT SNOW  34  32  92 E8        30.11S FOG     WCI  27  
CONCORD NH     CLOUDY    38  34  85 NE6       30.03F                  
MANCHESTER NH  CLOUDY    39  36  89 NE8       30.02F FOG              
NASHUA NH      CLOUDY    39  39 100 VRB6      30.03S                  
PORTSMOUTH NH  CLOUDY    39  38  96 NE13G20   30.02  FOG     WCI  31  
JAFFREY NH     CLOUDY    36  35  96 VRB6      29.98F FOG     WCI  31  
KEENE NH       CLOUDY    38  34  85 NE7       30.01F                  
BURLINGTON VT  PTSUNNY   45  36  70 S13       29.90S                  
MT. WASHINGTON PTSUNNY   28  27  93 W31         N/A  WCI  12          
$$

NYZ052-076-301500-
EASTERN NEW YORK
  
CITY           SKY/WX    TMP DP  RH WIND       PRES   REMARKS
ALBANY         CLOUDY    44  35  70 S10       29.93F                  
NEW YORK CITY  CLOUDY    43  38  82 E6        29.99R                  
$$
 
ANZALL-301500-
MARINE OBSERVATIONS
  
STATION/POSITION TIME  TEMP    WIND        PRES    VSBY  WAVE
                       AIR SEA DIR/SP/G                  HT/PER
                 (UTC) (F)     (DEG/KT/KT) (MB)    (MI)  (FT/S)
BOSTON BUOY      1350   40 43   40/ 17/ 21 1015.1R         9/ 9
BUZZARDS BAY     1300           10/ 20/ 20 1014.3R
NANTUCKET SOUND  1340                        N/A           2/ 3
MASS BAY-STELLWA 1304   40 42   70/ 19/ 23 1013.4F  1 7/8 10/ 8
ISLE OF SHOALS   1300   38      50/ 24/ 26 1015.5R
S OF BLOCK IS    1330      44                N/A           6/ 9
$$

......................KEY.........................
  SKY/WX - SKY CONDITION/PRESENT WEATHER
  TMP    - TEMPERATURE IN FAHRENHEIT
  DWPT   - DEWPOINT IN FAHRENHEIT
  RH     - RELATIVE HUMIDITY IN PERCENT
  WIND   - DIRECTION AND SPEED IN MPH
  PRES   - MEAN SEA LEVEL PRESSURE IN INCHES OF HG
  WCI    - WIND CHILL INDEX
  VSB    - VISIBILITY IN MILES
  HX     - HEAT INDEX
  TC     - TEMPERATURE IN CELSIUS
  VRB    - VARIABLE WIND DIRECTION
  N/A    - NOT AVAILABLE
  
      

Other recent Regional Weather Roundups

Wed Apr 1, 3:04am

Wed Apr 1, 2:04am

Wed Apr 1, 1:04am

Wed Apr 1, 12:04am

Tue Mar 31, 11:04pm

Tue Mar 31, 10:04pm

Tue Mar 31, 9:04pm

Tue Mar 31, 8:04pm

Tue Mar 31, 7:04pm

Tue Mar 31, 6:04pm

Tue Mar 31, 4:04pm

Tue Mar 31, 3:04pm

Tue Mar 31, 2:04pm

Tue Mar 31, 1:04pm

Tue Mar 31, 12:05pm

Tue Mar 31, 11:04am

Tue Mar 31, 10:05am

Tue Mar 31, 9:04am

Tue Mar 31, 8:04am

Tue Mar 31, 7:05am

Tue Mar 31, 6:04am

Tue Mar 31, 5:04am

Tue Mar 31, 4:04am

Tue Mar 31, 3:04am

Tue Mar 31, 2:04am

Tue Mar 31, 1:04am

Tue Mar 31, 12:04am

Mon Mar 30, 11:04pm

Mon Mar 30, 10:04pm

Mon Mar 30, 9:05pm

Mon Mar 30, 8:04pm

Mon Mar 30, 7:04pm

Mon Mar 30, 6:04pm

Mon Mar 30, 5:05pm

Mon Mar 30, 4:04pm

Mon Mar 30, 3:04pm

Mon Mar 30, 2:04pm

Mon Mar 30, 1:04pm

Mon Mar 30, 12:04pm

Mon Mar 30, 11:04am

Mon Mar 30, 9:04am

Mon Mar 30, 8:04am

Mon Mar 30, 7:04am

Mon Mar 30, 6:04am

Mon Mar 30, 5:04am

Mon Mar 30, 4:04am

Mon Mar 30, 3:05am

Mon Mar 30, 2:04am

Mon Mar 30, 1:04am

Mon Mar 30, 12:04am

Sun Mar 29, 11:04pm

Sun Mar 29, 10:05pm

Sun Mar 29, 9:04pm

Sun Mar 29, 8:04pm

Sun Mar 29, 7:04pm

Sun Mar 29, 6:04pm

Sun Mar 29, 5:05pm

Sun Mar 29, 4:04pm

Sun Mar 29, 3:04pm

Sun Mar 29, 2:04pm

Sun Mar 29, 1:05pm

Sun Mar 29, 12:04pm

Sun Mar 29, 11:04am

Sun Mar 29, 10:04am

Sun Mar 29, 9:04am

Sun Mar 29, 8:04am

Sun Mar 29, 7:04am

Sun Mar 29, 6:04am

Sun Mar 29, 5:04am

Sun Mar 29, 4:04am

Meta data:

ID: 1a194865-9361-4aac-804d-df31acd9376f
Link: https://api.weather.gov/products/1a194865-9361-4aac-804d-df31acd9376f